TimeMST,TemperatureF,Dew PointF,Humidity,Sea Level PressureIn,VisibilityMPH,Wind Direction,Wind SpeedMPH,Gust SpeedMPH,PrecipitationIn,Events,Conditions,WindDirDegrees,DateUTC
12:48 AM,17.1,12.0,81,30.23,-9999.0,NW,5.8,-,N/A,,Unknown,320,2013-02-11 07:48:00
1:48 AM,6.1,3.0,87,30.23,-9999.0,Calm,Calm,-,N/A,,Unknown,0,2013-02-11 08:48:00
2:48 AM,3.9,-0.0,84,30.22,-9999.0,WNW,5.8,-,N/A,,Unknown,300,2013-02-11 09:48:00
3:48 AM,1.9,-0.9,88,30.21,-9999.0,Calm,Calm,-,N/A,,Unknown,0,2013-02-11 10:48:00
4:48 AM,1.0,-2.0,87,30.19,-9999.0,Calm,Calm,-,N/A,,Unknown,0,2013-02-11 11:48:00
5:48 AM,1.0,-2.0,87,30.18,-9999.0,Calm,Calm,-,N/A,,Unknown,0,2013-02-11 12:48:00
6:48 AM,-0.0,-2.0,91,30.17,-9999.0,Calm,Calm,-,N/A,,Unknown,0,2013-02-11 13:48:00
7:48 AM,-0.0,-4.0,83,30.16,-9999.0,Calm,Calm,-,N/A,,Unknown,0,2013-02-11 14:48:00
8:48 AM,10.0,7.0,87,30.12,-9999.0,Calm,Calm,-,N/A,,Unknown,0,2013-02-11 15:48:00
9:48 AM,19.0,12.9,77,30.09,-9999.0,Calm,Calm,-,N/A,,Unknown,0,2013-02-11 16:48:00
10:48 AM,27.0,16.0,63,30.06,-9999.0,West,10.4,-,N/A,,Unknown,260,2013-02-11 17:48:00
11:48 AM,28.9,18.0,64,30.05,-9999.0,WSW,10.4,-,N/A,,Unknown,240,2013-02-11 18:48:00
12:48 PM,33.1,19.0,56,30.01,-9999.0,SW,9.2,-,N/A,,Unknown,230,2013-02-11 19:48:00
1:48 PM,34.0,19.0,54,30.01,-9999.0,WSW,9.2,-,N/A,,Unknown,250,2013-02-11 20:48:00
2:48 PM,35.1,19.0,52,30.00,-9999.0,West,11.5,-,N/A,,Unknown,260,2013-02-11 21:48:00
3:48 PM,36.0,18.0,48,29.99,-9999.0,WSW,12.7,-,N/A,,Unknown,250,2013-02-11 22:48:00
4:48 PM,35.1,19.0,52,29.99,-9999.0,West,6.9,-,N/A,,Unknown,260,2013-02-11 23:48:00
5:48 PM,28.0,21.0,75,30.00,-9999.0,West,6.9,-,N/A,,Unknown,280,2013-02-12 00:48:00
6:48 PM,26.1,21.0,81,30.02,-9999.0,West,5.8,-,N/A,,Unknown,280,2013-02-12 01:48:00
7:48 PM,24.1,19.9,84,30.03,-9999.0,West,3.5,-,N/A,,Unknown,270,2013-02-12 02:48:00
8:48 PM,24.1,19.9,84,30.01,-9999.0,West,6.9,-,N/A,,Unknown,280,2013-02-12 03:48:00
9:48 PM,23.0,19.0,85,30.00,-9999.0,WNW,8.1,-,N/A,,Unknown,290,2013-02-12 04:48:00
10:48 PM,23.0,19.0,85,29.99,-9999.0,WNW,6.9,-,N/A,,Unknown,290,2013-02-12 05:48:00
11:48 PM,25.0,21.0,85,30.00,-9999.0,West,9.2,-,N/A,,Unknown,280,2013-02-12 06:48:00